timestamp,wind_dir_avg,wind_spd_avg,wind_spd_max_dir,wind_spd_gust,battery_voltage,lat,long
2023-04-21 00:04:01+00:00,56.0,9.91,52.0,11.06,12.33,47.59359,-54.27349
2023-04-21 00:14:00+00:00,57.0,10.01,55.0,11.5,12.25,47.59359,-54.27349
2023-04-21 00:24:00+00:00,58.0,9.81,60.0,11.27,12.25,47.59359,-54.27349
2023-04-21 00:34:00+00:00,53.0,9.86,54.0,11.3,12.25,47.59359,-54.27349
2023-04-21 00:44:00+00:00,55.0,9.94,55.0,12.12,12.25,47.59359,-54.27349
2023-04-21 00:54:00+00:00,55.0,9.62,55.0,11.22,12.25,47.59359,-54.27349
2023-04-21 01:04:00+00:00,54.0,9.84,58.0,11.49,12.25,47.59359,-54.27349
2023-04-21 01:14:00+00:00,54.0,10.28,57.0,11.31,12.25,47.59359,-54.27349
2023-04-21 01:24:00+00:00,54.0,11.65,56.0,13.35,12.25,47.59359,-54.27349
2023-04-21 01:34:00+00:00,48.0,10.71,47.0,12.13,12.25,47.59359,-54.27349
2023-04-21 01:44:00+00:00,51.0,11.75,51.0,13.82,12.25,47.59359,-54.27349
2023-04-21 01:54:00+00:00,46.0,10.72,56.0,13.11,12.25,47.59359,-54.27349
2023-04-21 02:04:00+00:00,52.0,10.5,66.0,13.29,12.25,47.59359,-54.27349
2023-04-21 02:14:00+00:00,47.0,10.37,51.0,11.93,12.25,47.59359,-54.27349
2023-04-21 02:24:00+00:00,49.0,10.72,61.0,11.75,12.25,47.59359,-54.27349
2023-04-21 02:34:00+00:00,46.0,10.33,58.0,11.89,12.25,47.59359,-54.27349
2023-04-21 02:44:00+00:00,43.0,10.17,51.0,12.56,12.25,47.59359,-54.27349
2023-04-21 02:54:00+00:00,41.0,10.73,50.0,13.06,12.25,47.59359,-54.27349
2023-04-21 03:04:00+00:00,46.0,12.56,50.0,15.53,12.25,47.59359,-54.27349
2023-04-21 03:14:00+00:00,48.0,11.98,56.0,17.96,12.25,47.59359,-54.27349
2023-04-21 03:24:00+00:00,50.0,12.57,59.0,19.33,12.25,47.59359,-54.27349
2023-04-21 03:34:00+00:00,55.0,14.39,64.0,19.55,12.25,47.59359,-54.27349
2023-04-21 03:44:00+00:00,49.0,13.21,58.0,17.04,12.25,47.59359,-54.27349
2023-04-21 03:54:00+00:00,45.0,11.19,56.0,15.7,12.25,47.59359,-54.27349
2023-04-21 04:04:00+00:00,49.0,12.63,47.0,15.34,12.25,47.59359,-54.27349
2023-04-21 04:14:00+00:00,55.0,14.14,62.0,18.92,12.17,47.59359,-54.27349
2023-04-21 04:24:00+00:00,50.0,12.21,62.0,14.14,12.17,47.59359,-54.27349
2023-04-21 04:34:00+00:00,46.0,12.22,52.0,15.64,12.17,47.59359,-54.27349
2023-04-21 04:44:00+00:00,42.0,11.97,57.0,16.17,12.17,47.59359,-54.27349
2023-04-21 04:54:00+00:00,47.0,13.13,57.0,17.63,12.17,47.59359,-54.27349
2023-04-21 05:04:00+00:00,49.0,13.5,56.0,18.57,12.17,47.59359,-54.27349
2023-04-21 05:14:00+00:00,48.0,15.51,54.0,20.53,12.17,47.59359,-54.27349
2023-04-21 05:24:00+00:00,49.0,14.48,57.0,19.82,12.17,47.59359,-54.27349
2023-04-21 05:34:00+00:00,53.0,16.41,59.0,20.98,12.17,47.59359,-54.27349
2023-04-21 05:44:00+00:00,54.0,16.44,57.0,21.24,12.17,47.59359,-54.27349
2023-04-21 05:54:00+00:00,55.0,16.92,53.0,20.68,12.17,47.59359,-54.27349
2023-04-21 06:04:00+00:00,54.0,14.2,67.0,18.87,12.17,47.59359,-54.27349
2023-04-21 06:14:01+00:00,54.0,15.2,58.0,19.95,12.17,47.59359,-54.27349
2023-04-21 06:24:01+00:00,51.0,13.13,60.0,18.78,12.17,47.59359,-54.27349
2023-04-21 06:34:01+00:00,51.0,14.19,60.0,19.27,12.17,47.59359,-54.27349
2023-04-21 06:44:01+00:00,51.0,13.47,56.0,17.53,12.17,47.59359,-54.27349
2023-04-21 06:54:01+00:00,44.0,12.6,45.0,16.19,12.17,47.59359,-54.27349
2023-04-21 07:04:01+00:00,38.0,11.78,44.0,13.76,12.17,47.59359,-54.27349
2023-04-21 07:14:01+00:00,40.0,11.37,41.0,12.66,12.09,47.59359,-54.27349
2023-04-21 07:24:01+00:00,44.0,11.25,41.0,12.75,12.09,47.59359,-54.27349
2023-04-21 07:34:01+00:00,42.0,11.76,54.0,13.63,12.09,47.59359,-54.27349
2023-04-21 07:44:01+00:00,46.0,13.15,52.0,17.56,12.09,47.59359,-54.27349
2023-04-21 07:54:01+00:00,42.0,11.6,36.0,13.13,12.09,47.59359,-54.27349
2023-04-21 08:04:01+00:00,39.0,11.99,37.0,13.89,12.09,47.59359,-54.27349
2023-04-21 08:14:01+00:00,41.0,11.81,48.0,13.92,12.09,47.59359,-54.27349
2023-04-21 08:24:01+00:00,39.0,12.04,47.0,13.89,12.09,47.59359,-54.27349
2023-04-21 08:34:01+00:00,41.0,11.89,41.0,13.16,12.09,47.59359,-54.27349
2023-04-21 08:44:01+00:00,41.0,12.18,44.0,13.84,12.09,47.59359,-54.27349
2023-04-21 08:54:01+00:00,39.0,12.27,33.0,14.31,12.09,47.59359,-54.27349
2023-04-21 09:04:01+00:00,42.0,11.8,39.0,13.13,12.09,47.59359,-54.27349
2023-04-21 09:14:01+00:00,39.0,12.15,37.0,13.51,12.09,47.59359,-54.27349
2023-04-21 09:24:01+00:00,39.0,12.16,35.0,13.76,12.09,47.59359,-54.27349
2023-04-21 09:34:01+00:00,38.0,12.56,32.0,14.53,12.09,47.59359,-54.27349
2023-04-21 09:44:01+00:00,38.0,12.17,39.0,13.4,12.09,47.59359,-54.27349
2023-04-21 09:54:01+00:00,39.0,11.89,39.0,12.75,12.09,47.59359,-54.27349
2023-04-21 10:04:01+00:00,38.0,12.04,37.0,13.32,12.09,47.59359,-54.27349
2023-04-21 10:14:00+00:00,38.0,12.75,37.0,14.29,12.09,47.59359,-54.27349
2023-04-21 10:24:00+00:00,39.0,12.6,35.0,14.84,12.09,47.59359,-54.27349
2023-04-21 10:34:00+00:00,43.0,11.61,49.0,12.54,12.09,47.59359,-54.27349
2023-04-21 10:44:00+00:00,43.0,11.55,45.0,13.2,12.09,47.59359,-54.27349
2023-04-21 10:54:00+00:00,36.0,12.98,33.0,14.38,12.09,47.59359,-54.27349
2023-04-21 11:04:00+00:00,38.0,12.36,36.0,13.6,12.09,47.59359,-54.27349
2023-04-21 11:14:00+00:00,37.0,12.95,28.0,14.12,12.57,47.59359,-54.27349
2023-04-21 11:24:00+00:00,38.0,12.47,37.0,13.47,12.57,47.59359,-54.27349
2023-04-21 11:34:00+00:00,38.0,12.73,37.0,13.46,12.57,47.59359,-54.27349
2023-04-21 11:44:00+00:00,38.0,12.25,36.0,13.87,12.57,47.59359,-54.27349
2023-04-21 11:54:00+00:00,36.0,12.3,34.0,13.76,12.57,47.59359,-54.27349
2023-04-21 12:04:00+00:00,37.0,12.21,35.0,13.32,12.57,47.59359,-54.27349
2023-04-21 12:14:00+00:00,35.0,12.37,36.0,13.62,12.97,47.59359,-54.27349
2023-04-21 12:24:00+00:00,36.0,11.96,32.0,14.1,12.97,47.59359,-54.27349
2023-04-21 12:34:00+00:00,33.0,13.2,31.0,14.87,12.97,47.59359,-54.27349
2023-04-21 12:44:00+00:00,34.0,12.71,34.0,14.4,12.97,47.59359,-54.27349
2023-04-21 12:54:00+00:00,34.0,11.5,32.0,13.05,12.97,47.59359,-54.27349
2023-04-21 13:04:00+00:00,33.0,13.0,31.0,14.82,12.97,47.59359,-54.27349
2023-04-21 13:14:00+00:00,33.0,12.67,33.0,14.57,13.29,47.59359,-54.27349
2023-04-21 13:24:00+00:00,35.0,13.1,34.0,14.46,13.29,47.59359,-54.27349
2023-04-21 13:34:00+00:00,33.0,13.61,33.0,15.27,13.29,47.59359,-54.27349
2023-04-21 13:44:00+00:00,33.0,13.64,30.0,15.16,13.29,47.59359,-54.27349
2023-04-21 13:54:00+00:00,36.0,12.37,36.0,13.42,13.29,47.59359,-54.27349
2023-04-21 14:04:00+00:00,36.0,12.47,36.0,13.87,13.29,47.59359,-54.27349
2023-04-21 14:14:00+00:00,37.0,12.26,36.0,13.63,13.6,47.59359,-54.27349
2023-04-21 14:24:00+00:00,39.0,11.9,41.0,12.79,13.6,47.59359,-54.27349
2023-04-21 14:34:00+00:00,37.0,11.99,36.0,13.3,13.6,47.59359,-54.27349
2023-04-21 14:44:00+00:00,38.0,11.7,37.0,12.86,13.6,47.59359,-54.27349
2023-04-21 14:54:00+00:00,37.0,12.05,32.0,13.28,13.6,47.59359,-54.27349
2023-04-21 15:04:00+00:00,36.0,12.36,33.0,13.91,13.6,47.59359,-54.27349
2023-04-21 15:14:00+00:00,34.0,13.09,37.0,14.46,14.08,47.59359,-54.27349
2023-04-21 15:24:00+00:00,34.0,12.7,30.0,14.39,14.08,47.59359,-54.27349
2023-04-21 15:34:00+00:00,38.0,11.25,46.0,12.47,14.08,47.59359,-54.27349
2023-04-21 15:44:00+00:00,35.0,13.07,34.0,15.74,14.08,47.59359,-54.27349
2023-04-21 15:54:00+00:00,33.0,14.16,32.0,16.27,14.08,47.59359,-54.27349
2023-04-21 16:04:00+00:00,34.0,13.73,32.0,15.45,14.08,47.59359,-54.27349
2023-04-21 16:14:00+00:00,33.0,13.55,31.0,15.4,14.16,47.59359,-54.27349
2023-04-21 16:24:00+00:00,30.0,13.59,29.0,16.49,14.16,47.59359,-54.27349
2023-04-21 16:34:00+00:00,29.0,16.32,31.0,18.68,14.16,47.59359,-54.27349
2023-04-21 16:44:00+00:00,35.0,12.87,33.0,13.85,14.16,47.59359,-54.27349
2023-04-21 16:54:00+00:00,31.0,14.37,34.0,16.08,14.16,47.59359,-54.27349
2023-04-21 17:04:00+00:00,34.0,14.41,30.0,16.36,14.16,47.59359,-54.27349
2023-04-21 17:14:00+00:00,40.0,13.08,42.0,14.25,13.84,47.59359,-54.27349
2023-04-21 17:24:00+00:00,33.0,12.76,31.0,15.39,13.84,47.59359,-54.27349
2023-04-21 17:34:00+00:00,40.0,12.23,32.0,14.42,13.84,47.59359,-54.27349
2023-04-21 17:44:00+00:00,37.0,13.54,33.0,14.87,13.84,47.59359,-54.27349
2023-04-21 17:54:00+00:00,44.0,13.38,40.0,15.82,13.84,47.59359,-54.27349
2023-04-21 18:04:00+00:00,41.0,13.45,46.0,15.5,13.84,47.59359,-54.27349
2023-04-21 18:14:00+00:00,44.0,12.58,54.0,15.84,14.4,47.59359,-54.27349
2023-04-21 18:24:00+00:00,44.0,11.97,48.0,13.0,14.4,47.59359,-54.27349
2023-04-21 18:34:00+00:00,42.0,13.16,45.0,15.91,14.4,47.59359,-54.27349
2023-04-21 18:44:00+00:00,39.0,12.64,36.0,14.02,14.4,47.59359,-54.27349
2023-04-21 18:54:00+00:00,42.0,11.87,43.0,12.88,14.4,47.59359,-54.27349
2023-04-21 19:04:00+00:00,41.0,12.6,42.0,13.33,14.4,47.59359,-54.27349
2023-04-21 19:14:01+00:00,26.0,14.42,28.0,15.71,13.53,47.59359,-54.27349
2023-04-21 19:24:01+00:00,27.0,13.35,30.0,15.45,13.53,47.59359,-54.27349
2023-04-21 19:34:01+00:00,29.0,11.09,32.0,12.43,13.53,47.59359,-54.27349
2023-04-21 19:44:01+00:00,23.0,14.32,20.0,17.63,13.53,47.59359,-54.27349
2023-04-21 19:54:01+00:00,32.0,10.78,32.0,12.19,13.53,47.59359,-54.27349
2023-04-21 20:04:01+00:00,34.0,11.56,32.0,13.01,13.53,47.59359,-54.27349
2023-04-21 20:14:00+00:00,30.0,12.87,30.0,14.6,13.76,47.59359,-54.27349
2023-04-21 20:24:00+00:00,29.0,13.53,27.0,15.18,13.76,47.59359,-54.27349
2023-04-21 20:34:00+00:00,37.0,11.58,36.0,12.96,13.76,47.59359,-54.27349
2023-04-21 20:44:00+00:00,28.0,11.97,31.0,13.77,13.76,47.59359,-54.27349
2023-04-21 20:54:00+00:00,29.0,12.24,32.0,13.97,13.76,47.59359,-54.27349
2023-04-21 21:04:00+00:00,26.0,12.84,27.0,15.35,13.76,47.59359,-54.27349
2023-04-21 21:14:00+00:00,19.0,10.38,20.0,11.67,13.53,47.59359,-54.27349
2023-04-21 21:24:00+00:00,14.0,11.19,12.0,13.36,13.53,47.59359,-54.27349
2023-04-21 21:34:00+00:00,23.0,11.04,22.0,12.66,13.53,47.59359,-54.27349
2023-04-21 21:44:00+00:00,18.0,11.85,19.0,13.16,13.53,47.59359,-54.27349
2023-04-21 21:54:00+00:00,26.0,10.66,29.0,11.93,13.53,47.59359,-54.27349
2023-04-21 22:04:00+00:00,15.0,11.18,15.0,13.6,13.53,47.59359,-54.27349
2023-04-21 22:14:00+00:00,21.0,10.19,25.0,11.41,13.29,47.59359,-54.27349
2023-04-21 22:24:00+00:00,19.0,10.51,28.0,12.68,13.29,47.59359,-54.27349
2023-04-21 22:34:00+00:00,17.0,10.73,18.0,12.45,13.29,47.59359,-54.27349
2023-04-21 22:44:00+00:00,19.0,11.04,15.0,12.55,13.29,47.59359,-54.27349
2023-04-21 22:54:00+00:00,11.0,11.12,10.0,13.92,13.29,47.59359,-54.27349
2023-04-21 23:04:00+00:00,8.0,8.74,14.0,10.52,13.29,47.59359,-54.27349
2023-04-21 23:14:00+00:00,8.0,9.73,6.0,11.65,12.65,47.59359,-54.27349
2023-04-21 23:24:00+00:00,12.0,10.52,13.0,13.4,12.65,47.59359,-54.27349
2023-04-21 23:34:00+00:00,13.0,10.04,17.0,12.05,12.65,47.59359,-54.27349
2023-04-21 23:44:00+00:00,16.0,9.53,21.0,11.23,12.65,47.59359,-54.27349
2023-04-21 23:54:00+00:00,10.0,8.83,11.0,10.51,12.65,47.59359,-54.27349
